User: anonymous   Login
Location: Dos Palmas
(32.4468°N, 116.8732°W)
Time: 15:55:04
(UTC+00:00)
Language:

Cosmos 1726 - Orbit

View from above orbital plane
View from above orbital plane
View from above satellite
View from above satellite

Ground track
Ground track

The orbit data is extracted from the following two-line orbital elements,

1 16495U 86006A   21258.85768615  .00001601  00000-0  60698-4 0  9990
2 16495  82.4721 312.1988 0013352 142.2213 217.9965 15.26055735952488
Epoch (UTC): 15 September 2021 20:35:04
Eccentricity: 0.0013352
inclination: 82.4721°
perigee height: 478 km
apogee height: 497 km
right ascension of ascending node: 312.1988°
argument of perigee: 142.2213°
revolutions per day: 15.26055735
mean anomaly at epoch: 217.9965°
orbit number at epoch: 95248

The dashed part of the orbit path shows where the satellite is in the earth's shadow,  

DLR